EW8682 Weather Reports


Display with metric or nautical units.
time (UTC)temp
F
wind
direction
speed
MPH
gust
MPH
rain 1hr
in
rain 24hr
in
rain mn
in
humidity
%
barometer
mb
20260505053021 53 174 0.0 2.0 0.01 0.01 0.01 83 1006.9
20260505051519 54 174 0.0 2.0 0.01 0.01 0.01 82 1007.0
20260505041517 56 174 0.0 1.0 0.00 0.00 0.00 75 1007.1
20260505040017 56 174 1.0 3.0 0.00 0.00 0.00 73 1007.0
20260505034525 56 173 1.0 4.0 0.00 0.00 0.00 72 1006.9
20260505033015 57 173 1.0 8.0 0.00 0.00 0.00 70 1006.8
20260505031515 57 190 1.0 4.0 0.00 0.00 0.00 69 1006.6
20260505030033 58 238 2.0 6.0 0.00 0.00 0.00 67 1006.4
20260505024517 58 227 1.0 7.0 0.00 0.00 0.00 65 1006.4
20260505023013 59 277 2.0 6.0 0.00 0.00 0.00 64 1006.2
20260505021512 59 196 2.0 8.0 0.00 0.00 0.00 65 1006.1
20260505020012 59 182 3.0 7.0 0.00 0.00 0.00 65 1006.1
20260505014518 60 196 2.0 8.0 0.00 0.00 0.00 64 1006.2
20260505013017 60 211 4.0 10.0 0.00 0.00 0.00 63 1006.2
20260505011509 60 179 2.0 11.0 0.00 0.00 0.00 63 1006.2
20260505010008 61 184 2.0 8.0 0.00 0.00 0.00 63 1006.4
20260505004522 61 192 4.0 10.0 0.00 0.00 0.00 60 1006.4
20260505003006 61 175 2.0 8.0 0.00 0.00 0.00 60 1006.4
20260505001506 62 170 4.0 8.0 0.00 0.00 0.00 59 1006.3
20260505000007 63 171 3.0 8.0 0.00 0.00 0.00 58 1006.1
20260504234506 63 173 4.0 9.0 0.00 0.00 0.00 57 1006.0
20260504233002 64 228 4.0 12.0 0.00 0.00 0.00 56 1006.2
20260504231625 62 186 4.0 9.0 0.00 0.00 0.00 58 1006.3
20260504230059 63 184 4.0 8.0 0.00 0.00 0.00 58 1006.4
20260504224609 62 196 3.0 10.0 0.00 0.00 0.00 58 1006.6
20260504223056 62 167 4.0 8.0 0.00 0.00 0.00 58 1006.5
20260504221644 62 181 1.0 8.0 0.00 0.00 0.00 59 1006.8
20260504220055 62 178 4.0 9.0 0.00 0.00 0.00 58 1007.1
20260504214555 62 186 3.0 8.0 0.00 0.00 0.00 58 1007.2
20260504213100 61 175 2.0 10.0 0.00 0.00 0.00 60 1007.2
20260504211554 61 173 3.0 8.0 0.00 0.00 0.00 57 1007.2
20260504210053 62 169 3.0 9.0 0.00 0.00 0.00 57 1007.0
20260504204552 61 184 2.0 7.0 0.00 0.00 0.00 60 1007.1
20260504203050 61 178 0.0 3.0 0.00 0.00 0.00 61 1007.2
20260504201550 61 178 2.0 4.0 0.00 0.00 0.00 61 1007.3
20260504200049 61 173 2.0 5.0 0.00 0.00 0.00 60 1007.4
20260504194553 60 175 0.0 6.0 0.00 0.00 0.00 62 1007.6
20260504193050 60 170 4.0 9.0 0.00 0.00 0.00 62 1007.7
20260504191609 60 174 3.0 8.0 0.00 0.00 0.00 64 1007.6
20260504190047 60 175 4.0 8.0 0.00 0.00 0.00 61 1007.7
20260504184555 60 178 1.0 7.0 0.00 0.01 0.00 62 1007.8
20260504183145 61 171 3.0 8.0 0.00 0.01 0.00 61 1007.8
20260504181542 61 195 2.0 7.0 0.00 0.01 0.00 56 1007.8
20260504180040 60 178 0.0 4.0 0.00 0.01 0.00 59 1007.7
20260504174538 60 191 3.0 9.0 0.00 0.06 0.00 59 1007.8
20260504173035 59 205 3.0 6.0 0.00 0.06 0.00 64 1007.7
20260504171532 58 199 1.0 5.0 0.00 0.06 0.00 66 1007.7
20260504081531 54 179 0.0 2.0 0.00 0.10 0.00 81 1007.8